Location: Twentynine Palms Airport
(34.1316°N, 115.9458°W)
Time: 23:22:12
(UTC-07:00)

Amateur Radio Satellites - All Passes

Search period start: 21 October 2014 22:52
Search period end: 22 October 2014 22:52
Location: Twentynine Palms Airport, 34.1316°N, 115.9458°W

Satellite Date Start Highest point End Downlink Frequencies (MHz)
Time Altitude Azimuth
FUNcube-1 21 Oct 23:09:43 23:13:32 26° 264° (W) 23:17:22 145.950 - 145.970 MHz USB
SO-50 21 Oct 23:18:40 23:23:27 61° 244° (WSW) 23:28:15 436.795 FM
UOSAT-12 21 Oct 23:21:33 23:24:10 15° 47° (NE) 23:26:46 437.025 FM, 437.400 FM
MaSat-1 21 Oct 23:39:01 23:42:51 31° 108° (ESE) 23:46:26 437.345 MHz
KITSAT 1 22 Oct 00:26:48 00:30:43 14° 259° (W) 00:34:38 435.175 FM
RS-15 22 Oct 00:45:15 00:54:26 30° 317° (NW) 01:03:41 29.354 - 29.394 USB, Beacon 29.352 USB
UOSAT-12 22 Oct 01:00:05 01:04:44 63° 244° (WSW) 01:09:16 437.025 FM, 437.400 FM
MaSat-1 22 Oct 01:15:31 01:18:34 19° 299° (WNW) 01:21:27 437.345 MHz
Oscar 10/S400 22 Oct 01:27:20 02:33:54 23° 247° (WSW) 05:11:10 145.825 - 145.975 CW/USB, Beacon 145.810 USB
Oscar 19 22 Oct 01:33:57 01:38:21 29° 97° (E) 01:42:43 437.125 CW, 437.150 USB
JAS-1B 22 Oct 01:41:10 01:47:20 35° 100° (E) 01:54:29 435.800 - 435.900 CW/SSB
AO-27 22 Oct 01:45:15 01:47:52 14° 93° (E) 01:50:29 436.795 MHz FM
Oscar 16 22 Oct 02:18:35 02:23:44 87° 103° (ESE) 02:28:51 437.025 USB, Beacon 2401.1428
Uribyol 2 22 Oct 02:32:37 02:37:38 46° 100° (E) 02:42:36 436.500 FM
ITAMSAT 1 22 Oct 02:37:48 02:42:52 49° 100° (E) 02:47:53 435.822 SSB
AO-Echo 22 Oct 02:38:42 02:44:01 70° 102° (ESE) 02:49:18 ?
Gurwin Techsat 1B 22 Oct 02:39:48 02:44:11 26° 96° (E) 02:48:32 435.225 FM
TMSAT-1 22 Oct 02:53:07 02:57:28 25° 96° (E) 03:01:46 436.925 FM
RS-15 22 Oct 03:10:09 03:12:17 11° 351° (N) 03:14:25 29.354 - 29.394 USB, Beacon 29.352 USB
Oscar 19 22 Oct 03:13:17 03:17:33 28° 291° (WNW) 03:21:49 437.125 CW, 437.150 USB
AO-27 22 Oct 03:22:33 03:27:41 57° 287° (WNW) 03:32:47 436.795 MHz FM
JAS-1B 22 Oct 03:31:49 03:37:50 37° 290° (WNW) 03:44:50 435.800 - 435.900 CW/SSB
AO-7 22 Oct 03:32:45 03:37:40 17° 93° (E) 03:42:33 29.400 - 29.500 MHz
Sapphire 22 Oct 03:51:39 03:56:42 42° 110° (ESE) 04:01:46 437.095 MHz 1200 baud AX-25 AFSK
Uribyol 2 22 Oct 04:13:14 04:16:41 18° 294° (WNW) 04:20:08 436.500 FM
PCSat 22 Oct 04:14:08 04:19:31 77° 114° (ESE) 04:24:57 145.825 MHz
ITAMSAT 1 22 Oct 04:18:34 04:21:54 17° 295° (WNW) 04:25:14 435.822 SSB
Gurwin Techsat 1B 22 Oct 04:19:25 04:24:06 33° 290° (WNW) 04:28:46 435.225 FM
AO-Echo 22 Oct 04:19:46 04:22:07 13° 296° (WNW) 04:24:28 ?
Uosat F 22 Oct 04:21:42 04:25:48 25° 96° (E) 04:29:52 435.120 FM
TMSAT-1 22 Oct 04:32:39 04:37:21 33° 290° (WNW) 04:42:01 436.925 FM
OPAL 22 Oct 04:53:23 04:58:30 65° 72° (ENE) 05:03:35 ?
JAS-2 22 Oct 05:00:25 05:06:17 23° 92° (E) 05:12:05 435.800 - 435.900 CW/SSB, 435.910 FM
AO-7 22 Oct 05:22:48 05:31:09 83° 288° (WNW) 05:39:29 29.400 - 29.500 MHz
RS-15 22 Oct 05:24:49 05:31:45 18° 30° (NNE) 05:38:46 29.354 - 29.394 USB, Beacon 29.352 USB
Sapphire 22 Oct 05:35:59 05:40:15 23° 306° (NW) 05:44:33 437.095 MHz 1200 baud AX-25 AFSK
Hamsat 22 Oct 05:54:52 05:58:31 29° 97° (E) 06:02:10 145.90 MHz
Uosat F 22 Oct 06:00:07 06:04:32 31° 290° (WNW) 06:08:55 435.120 FM
PCSat 22 Oct 06:00:41 06:03:31 14° 311° (NW) 06:06:22 145.825 MHz
STRAND 1 22 Oct 06:33:08 06:38:08 58° 74° (ENE) 06:43:11 ?
OPAL 22 Oct 06:35:46 06:37:43 12° 266° (W) 06:39:39 ?
JAS-2 22 Oct 06:43:55 06:51:37 66° 287° (WNW) 06:59:19 435.800 - 435.900 CW/SSB, 435.910 FM
Saudisat 1A 22 Oct 06:51:50 06:53:44 13° 108° (ESE) 06:55:39 436.775 MHz
AO-7 22 Oct 07:18:10 07:22:41 16° 306° (NW) 07:27:13 29.400 - 29.500 MHz
Hamsat 22 Oct 07:31:20 07:34:14 19° 290° (WNW) 07:37:09 145.90 MHz
PANSAT 22 Oct 07:34:21 07:36:20 14° 159° (SSE) 07:38:18 not established
RS-15 22 Oct 07:35:53 07:46:59 62° 57° (ENE) 07:58:32 29.354 - 29.394 USB, Beacon 29.352 USB
SO-67 22 Oct 07:36:07 07:39:32 58° 100° (E) 07:42:55 435.3500 MHz FM
STRAND 1 22 Oct 08:15:14 08:17:38 13° 268° (W) 08:20:02 ?
Saudisat 1A 22 Oct 08:28:34 08:32:49 50° 302° (WNW) 08:37:07 436.775 MHz
JAS-2 22 Oct 08:32:57 08:35:14 12° 303° (WNW) 08:37:33 435.800 - 435.900 CW/SSB, 435.910 FM
HO-68 22 Oct 09:12:03 09:18:51 44° 100° (E) 09:25:36 435.675 MHz FM
PANSAT 22 Oct 09:12:37 09:15:58 29° 171° (S) 09:19:19 not established
MaSat-1 22 Oct 09:30:08 09:31:28 13° 59° (ENE) 09:32:46 437.345 MHz
Oscar 11 22 Oct 09:36:00 09:39:08 20° 95° (E) 09:42:14 145.825 FM, Beacon 2401.500 USB
RS-15 22 Oct 09:49:06 09:58:42 34° 254° (WSW) 10:08:41 29.354 - 29.394 USB, Beacon 29.352 USB
ZACube-1 22 Oct 10:17:11 10:20:34 23° 95° (E) 10:23:54 437.345 MHz
UKube-1 22 Oct 10:26:57 10:31:21 90° 291° (WNW) 10:35:42 145.840 MHz, 145.915 MHz
PANSAT 22 Oct 10:52:17 10:55:46 34° 184° (S) 10:59:15 not established
HO-68 22 Oct 11:00:09 11:06:16 31° 295° (WNW) 11:12:22 435.675 MHz FM
KITSAT 1 22 Oct 11:00:21 11:05:24 18° 102° (ESE) 11:10:26 435.175 FM
FUNcube-1 22 Oct 11:01:55 11:06:11 84° 103° (ESE) 11:10:21 145.950 - 145.970 MHz USB
Oscar 11 22 Oct 11:11:35 11:15:16 28° 289° (WNW) 11:18:57 145.825 FM, Beacon 2401.500 USB
Oscar 10/S400 22 Oct 11:35:01 11:59:23 31° 153° (SSE) 12:15:13 145.825 - 145.975 CW/USB, Beacon 145.810 USB
ZACube-1 22 Oct 11:53:30 11:56:51 23° 290° (WNW) 12:00:09 437.345 MHz
JAS-1B 22 Oct 12:26:13 12:29:52 17° 65° (ENE) 12:33:23 435.800 - 435.900 CW/SSB
PANSAT 22 Oct 12:32:38 12:35:30 20° 196° (SSW) 12:38:22 not established
Sapphire 22 Oct 12:44:16 12:47:47 17° 51° (NE) 12:51:17 437.095 MHz 1200 baud AX-25 AFSK
Oscar 19 22 Oct 12:47:20 12:51:44 29° 70° (ENE) 12:56:08 437.125 CW, 437.150 USB
KITSAT 1 22 Oct 12:51:47 12:59:51 78° 298° (WNW) 13:07:58 435.175 FM
AO-27 22 Oct 13:00:01 13:03:02 16° 65° (ENE) 13:06:04 436.795 MHz FM
PCSat 22 Oct 13:06:20 13:10:58 28° 56° (NE) 13:15:35 145.825 MHz
ISS 22 Oct 13:18:06 13:21:25 76° 317° (NW) 13:24:45 145.800 FM
SO-50 22 Oct 13:29:53 13:34:19 74° 300° (WNW) 13:38:55 436.795 FM
Oscar 16 22 Oct 13:31:42 13:36:53 86° 76° (ENE) 13:42:04 437.025 USB, Beacon 2401.1428
Uribyol 2 22 Oct 13:46:45 13:51:45 48° 72° (ENE) 13:56:46 436.500 FM
AO-Echo 22 Oct 13:48:03 13:52:46 58° 74° (ENE) 13:57:39 ?
ITAMSAT 1 22 Oct 13:52:05 13:57:06 51° 73° (ENE) 14:02:09 435.822 SSB
Gurwin Techsat 1B 22 Oct 13:57:21 14:01:50 29° 69° (ENE) 14:06:20 435.225 FM
TMSAT-1 22 Oct 14:10:21 14:14:47 28° 69° (ENE) 14:19:14 436.925 FM
JAS-1B 22 Oct 14:14:01 14:20:11 54° 258° (WSW) 14:25:47 435.800 - 435.900 CW/SSB
Sapphire 22 Oct 14:26:16 14:31:37 62° 248° (WSW) 14:36:56 437.095 MHz 1200 baud AX-25 AFSK
Oscar 19 22 Oct 14:26:38 14:30:58 27° 263° (W) 14:35:20 437.125 CW, 437.150 USB
AO-7 22 Oct 14:28:36 14:33:50 19° 56° (NE) 14:39:04 29.400 - 29.500 MHz
AO-27 22 Oct 14:36:57 14:42:02 55° 259° (W) 14:47:10 436.795 MHz FM
PCSat 22 Oct 14:49:31 14:54:21 34° 251° (WSW) 14:59:10 145.825 MHz
KITSAT 1 22 Oct 14:51:38 14:56:34 17° 318° (NW) 15:01:32 435.175 FM
ISS 22 Oct 14:57:40 14:58:36 11° 334° (NNW) 14:59:32 145.800 FM
UOSAT-12 22 Oct 15:07:17 15:11:53 86° 299° (WNW) 15:16:37 437.025 FM, 437.400 FM
Uribyol 2 22 Oct 15:28:11 15:31:25 17° 266° (W) 15:34:41 436.500 FM
AO-Echo 22 Oct 15:30:10 15:31:55 12° 269° (W) 15:33:41 ?
Uosat F 22 Oct 15:31:39 15:35:35 24° 68° (ENE) 15:39:33 435.120 FM
ITAMSAT 1 22 Oct 15:33:48 15:36:49 16° 267° (W) 15:39:52 435.822 SSB
Gurwin Techsat 1B 22 Oct 15:37:07 15:41:41 29° 263° (W) 15:46:16 435.225 FM
TMSAT-1 22 Oct 15:49:57 15:54:33 30° 263° (W) 15:59:11 436.925 FM
AO-7 22 Oct 16:17:17 16:25:34 86° 253° (WSW) 16:33:54 29.400 - 29.500 MHz
Hamsat 22 Oct 16:46:04 16:48:13 14° 68° (ENE) 16:50:21 145.90 MHz
UOSAT-12 22 Oct 16:52:10 16:52:45 10° 316° (NW) 16:53:19 437.025 FM, 437.400 FM
JAS-2 22 Oct 16:52:43 16:57:53 36° 68° (ENE) 17:03:40 435.800 - 435.900 CW/SSB, 435.910 FM
Saudisat 1A 22 Oct 16:58:39 17:02:52 42° 57° (ENE) 17:07:02 436.775 MHz
OPAL 22 Oct 17:07:57 17:11:48 22° 98° (E) 17:15:38 ?
Uosat F 22 Oct 17:09:41 17:14:09 33° 262° (W) 17:18:40 435.120 FM
SO-67 22 Oct 18:07:34 18:08:26 11° 69° (ENE) 18:09:18 435.3500 MHz FM
AO-7 22 Oct 18:15:40 18:19:14 13° 268° (W) 18:22:50 29.400 - 29.500 MHz
Hamsat 22 Oct 18:19:48 18:23:47 40° 261° (W) 18:27:45 145.90 MHz
JAS-2 22 Oct 18:38:17 18:43:02 27° 267° (W) 18:48:16 435.800 - 435.900 CW/SSB, 435.910 FM
Saudisat 1A 22 Oct 18:39:24 18:42:03 16° 251° (WSW) 18:44:41 436.775 MHz
OPAL 22 Oct 18:46:16 18:50:41 33° 292° (WNW) 18:55:04 ?
STRAND 1 22 Oct 18:48:05 18:52:24 27° 96° (E) 18:56:41 ?
HO-68 22 Oct 19:37:57 19:43:14 23° 62° (ENE) 19:48:33 435.675 MHz FM
SO-67 22 Oct 19:37:58 19:41:03 31° 262° (W) 19:44:09 435.3500 MHz FM
ISS 22 Oct 19:50:08 19:52:53 23° 34° (NE) 19:55:37 145.800 FM
STRAND 1 22 Oct 20:27:04 20:31:30 30° 291° (WNW) 20:35:56 ?
Oscar 11 22 Oct 20:30:07 20:30:46 10° 65° (ENE) 20:31:26 145.825 FM, Beacon 2401.500 USB
KITSAT 1 22 Oct 20:49:51 20:56:37 28° 50° (NE) 21:03:20 435.175 FM
ZACube-1 22 Oct 21:11:03 21:13:28 14° 67° (ENE) 21:15:51 437.345 MHz
UKube-1 22 Oct 21:18:39 21:22:48 47° 73° (ENE) 21:26:59 145.840 MHz, 145.915 MHz
HO-68 22 Oct 21:23:19 21:30:21 61° 258° (WSW) 21:37:27 435.675 MHz FM
ISS 22 Oct 21:26:38 21:29:34 29° 229° (SW) 21:32:30 145.800 FM
FUNcube-1 22 Oct 21:54:08 21:58:28 43° 74° (ENE) 22:02:47 145.950 - 145.970 MHz USB
RS-15 22 Oct 21:54:34 22:05:15 57° 111° (ESE) 22:15:46 29.354 - 29.394 USB, Beacon 29.352 USB
Oscar 11 22 Oct 22:02:08 22:06:24 58° 260° (W) 22:10:41 145.825 FM, Beacon 2401.500 USB
SO-50 22 Oct 22:05:02 22:09:31 36° 55° (NE) 22:14:01 436.795 FM
